Logan, UT

10:32 AM MST on November 22, 2019 (GMT -0700)
Logan-Cache

Weather History for KLGU - August, 2019

Change the Weather History Date:

Wednesday, August 14, 2019

  Actual Average Record
Temperature  
Mean Temperature 70 °F -  
Max Temperature 91 °F 87 °F 100 °F (2003)
Min Temperature 48 °F 53 °F 39 °F (1959)
Cooling Degree Days 4    
Growing Degree Days 20 (Base 50)    
Moisture  
Dew Point 40 °F    
Average Humidity 38    
Maximum Humidity 77    
Minimum Humidity 14    
Precipitation  
Precipitation 0.00 in - - ()
Sea Level Pressure  
Sea Level Pressure 30.03 in    
Wind  
Wind Speed 2 mph (South)    
Max Wind Speed 9 mph    
Max Gust Speed -    
Visibility 10 miles    
Events      
Averages and records for this station are not official NWS values.
T = Trace of Precipitation, MM = Missing Value Source: NWS Daily Summary

Daily Weather History Graph

Daily Weather History Graph

Search for Another Location

Airport or City:

Astronomy

Aug. 14, 2019 Rise Set
Actual Time 6:34 AM MDT 8:28 PM MDT
Civil Twilight 6:04 AM MDT 8:58 PM MDT
Nautical Twilight 5:27 AM MDT 9:35 PM MDT
Astronomical Twilight 4:47 AM MDT 10:15 PM MDT
Moon 8:26 PM MDT (8/14) 5:34 AM MDT (8/14)
Length of Visible Light 14h 54m
Length of Day
13h 54m
Waxing Gibbous, 99% of the Moon is Illuminated
Aug 14
Waxing Gibbous
Aug 15
Full
Aug 23
Last Quarter
Aug 30
New
Sep 5
First Quarter

Hourly Weather History & Observations

Time (MDT) Temp. Dew Point Humidity Pressure Visibility Wind Dir Wind Speed Gust Speed Precip Events Conditions
12:51 AM 57.9 °F 43.0 °F 58% 30.04 in 10.0 mi Calm Calm - N/A   Clear
1:51 AM 61.0 °F 42.1 °F 50% 30.02 in 10.0 mi Calm Calm - N/A   Clear
2:51 AM 57.0 °F 43.0 °F 59% 30.03 in 10.0 mi SW 4.6 mph - N/A   Clear
3:51 AM 53.1 °F 44.1 °F 71% 30.03 in 10.0 mi Calm Calm - N/A   Clear
4:51 AM 54.0 °F 42.1 °F 64% 30.04 in 10.0 mi NNE 3.5 mph - N/A   Clear
5:51 AM 48.9 °F 42.1 °F 77% 30.06 in 10.0 mi Calm Calm - N/A   Clear
6:51 AM 50.0 °F 43.0 °F 77% 30.07 in 10.0 mi Calm Calm - N/A   Clear
7:51 AM 54.0 °F 44.1 °F 69% 30.09 in 10.0 mi NNW 3.5 mph - N/A   Clear
8:51 AM 60.1 °F 43.0 °F 53% 30.10 in 10.0 mi Calm Calm - N/A   Clear
9:51 AM 66.9 °F 39.9 °F 37% 30.09 in 10.0 mi Variable 3.5 mph - N/A   Clear
10:51 AM 72.0 °F 41.0 °F 33% 30.09 in 10.0 mi Calm Calm - N/A   Clear
11:51 AM 78.1 °F 41.0 °F 27% 30.06 in 10.0 mi North 4.6 mph - N/A   Clear
12:51 PM 82.0 °F 43.0 °F 25% 30.06 in 10.0 mi Variable 4.6 mph - N/A   Clear
1:51 PM 84.9 °F 37.0 °F 18% 30.03 in 10.0 mi Calm Calm - N/A   Clear
2:38 PM 90.0 °F 35.1 °F 14% 30.17 in 10.0 mi Variable 4.6 mph - N/A   Partly Cloudy
2:51 PM 90.0 °F 34.0 °F 14% 30.00 in 10.0 mi Variable 3.5 mph - N/A   Clear
3:15 PM 89.1 °F 35.1 °F 15% 30.15 in 10.0 mi Variable 4.6 mph - N/A   Partly Cloudy
3:51 PM 90.0 °F 34.0 °F 14% 29.99 in 10.0 mi SSE 5.8 mph - N/A   Clear
4:51 PM 91.0 °F 36.0 °F 14% 29.97 in 10.0 mi SSW 9.2 mph - N/A   Clear
5:51 PM 91.0 °F 35.1 °F 14% 29.97 in 10.0 mi SSW 9.2 mph - N/A   Clear
6:51 PM 90.0 °F 37.0 °F 15% 29.96 in 10.0 mi SSW 6.9 mph - N/A   Clear
7:51 PM 86.0 °F 39.9 °F 20% 29.95 in 10.0 mi South 5.8 mph - N/A   Clear
8:51 PM 79.0 °F 45.0 °F 30% 29.96 in 10.0 mi East 3.5 mph - N/A   Clear
9:51 PM 73.0 °F 43.0 °F 34% 29.98 in 10.0 mi SE 3.5 mph - N/A   Clear
10:51 PM 68.0 °F 44.1 °F 42% 29.99 in 10.0 mi Calm Calm - N/A   Clear
11:51 PM 66.0 °F 45.0 °F 47% 29.99 in 10.0 mi Calm Calm - N/A   Clear